Flag for Norway Weather past 2 weeks in Tønsberg, Norway

Now
46 °F

Partly sunny.


Feels Like: 38 °F
Forecast: 44 / 51 °F
Wind: 24 mph from Southwest

Location: Oseberg

Current Time: May 27, 2015 at 5:05:38 PM

Latest Report: May 27, 2015 at 4:20 PM


Visibility: N/A

Pressure: 29.89 "Hg

Humidity: 93%

Dew point: 45 °F

Location of TønsbergLocation

Historic Weather in Tønsberg — Graph

°F

Tønsberg temperature yesterday

Maximum temperature yesterday: 50 °F (at 1:20 PM)
Minimum temperature yesterday: 45 °F (at 3:20 PM)
Average temperature yesterday: 47 °F

Past Weeks' High & Low Weather Summary

 TemperatureHumidityPressure
High52 °F (May 25, 3:20 PM)100% (May 12, 5:50 PM)30.15 "Hg (May 12, 5:50 PM)
Low43 °F (May 13, 10:50 PM)53% (May 14, 10:20 AM)29.27 "Hg (May 19, 5:50 AM)
Average46 °F81%29.78 "Hg
* Reported May 12 3:20 PM — May 27 3:50 PM, Tønsberg, Weather by CustomWeather, © 2015

Note: Actual official high and low records may vary slightly from our data, if they occured in-between our weather recording intervals... More about our weather records

Advertising

Tønsberg weather history for previous 24 hours

 ConditionsComfort  
Time TempWeatherWind HumidityBarometerVisibility
3:50 PM
Wed, May 27
46 °FSprinkles. Broken clouds.23 mph93%29.89 "HgN/A
3:20 PM46 °FPartly sunny.22 mph93%29.89 "HgN/A
2:50 PM48 °FPartly sunny.23 mph87%29.89 "HgN/A
2:20 PM46 °FPartly sunny.21 mph93%29.89 "HgN/A
1:50 PM46 °FLight rain. Partly sunny.23 mph93%29.89 "HgN/A
12:50 PM48 °FPartly sunny.20 mph82%29.92 "HgN/A
12:20 PM48 °FBroken clouds.18 mph82%29.92 "HgN/A
11:50 AM48 °FBroken clouds.17 mph82%29.92 "HgN/A
11:20 AM48 °FScattered clouds.18 mph82%29.92 "HgN/A
10:50 AM48 °FScattered clouds.18 mph76%29.92 "HgN/A
10:20 AM50 °FScattered clouds.18 mph71%29.92 "HgN/A
9:50 AM48 °FScattered clouds.18 mph76%29.92 "HgN/A
9:20 AM48 °FScattered clouds.22 mph76%29.92 "HgN/A
8:50 AM48 °FScattered clouds.20 mph82%29.92 "HgN/A
7:20 AM46 °FScattered clouds.18 mph87%29.92 "HgN/A
6:50 AM48 °FBroken clouds.22 mph87%29.92 "HgN/A
5:50 AM45 °FPartly sunny.16 mph87%29.92 "HgN/A
4:50 AM48 °FPassing clouds.21 mph82%29.92 "HgN/A
3:50 AM46 °FPassing clouds.23 mph87%29.92 "HgN/A
2:50 AM45 °FQuite cool.N/A87%29.92 "HgN/A
1:50 AM46 °FPassing clouds.22 mph82%29.95 "HgN/A
12:50 AM46 °FPassing clouds.21 mph82%29.92 "HgN/A
11:50 PM
Tue, May 26
46 °FPassing clouds.17 mph82%29.95 "HgN/A
10:50 PM46 °FSprinkles. Partly sunny.20 mph82%29.95 "HgN/A
9:50 PM45 °FSprinkles. Partly sunny.18 mph87%29.95 "HgN/A
8:50 PM46 °FLight rain. Broken clouds.22 mph82%29.95 "HgN/A
7:50 PM46 °FPartly sunny.20 mph87%29.95 "HgN/A
6:50 PM46 °FPartly sunny.22 mph87%29.92 "HgN/A
6:20 PM46 °FPartly sunny.24 mph82%29.92 "HgN/A
5:50 PM46 °FPartly sunny.22 mph82%29.92 "HgN/A
5:20 PM46 °FScattered showers. Broken clouds.17 mph87%29.92 "HgN/A
Weather by CustomWeather, © 2015

See weather overviewHow to use our weather pages